Date String (YYYY-MM-DD hh:mm:ss) UTC,Instrument flags,Ambient pressure (hPa),Sample flow (lpm),Bypass flow (lpm),Sample temperature (°C),Ambient temperature (°C),ASC tube jacket temperature (°C),LED temperature (°C),Box temperature (°C),Sample RH (%),Span deviation,Mass concentration (μg/m³),Mass concentration (μg/m³),Mass concentration (μg/m³)
DateTimeUTC,F1_M11,P_M11,Q1_M11,Q2_M11,T1_M11,T2_M11,T3_M11,T4_M11,T5_M11,U1_M11,ZSPAN_M11,X0_M11,X2_M11,X1_M11
2022-04-18 15:00:00,,0833.6,5.01,0.00,23.3,22.4,00.0,32.2,25.1,10.1,0000.0,0013.02,0003.61,0001.85
2022-04-18 15:01:00,,0833.7,5.00,0.00,23.3,22.4,00.0,32.2,25.1,10.3,0000.0,0013.30,0003.64,0001.85
2022-04-18 15:02:00,,0833.7,5.00,0.00,23.3,22.4,00.0,32.2,25.1,10.2,0000.0,0014.25,0003.69,0001.86
2022-04-18 15:03:00,,0833.6,5.00,0.00,23.3,22.5,00.0,32.2,25.1,10.2,0000.0,0014.85,0003.74,0001.86
2022-04-18 15:04:00,,0833.6,5.00,0.00,23.4,22.5,00.0,32.2,25.1,10.1,0000.0,0015.94,0003.77,0001.87
2022-04-18 15:05:00,,0833.6,4.98,0.00,23.4,22.5,00.0,32.2,25.2,10.1,0000.0,0016.40,0003.77,0001.88
2022-04-18 15:06:00,,0833.6,5.01,0.00,23.4,22.5,00.0,32.3,25.2,10.3,0000.0,0015.95,0003.79,0001.89
2022-04-18 15:07:00,,0833.6,5.01,0.00,23.4,22.6,00.0,32.3,25.2,10.2,0000.0,0016.80,0003.79,0001.88
2022-04-18 15:08:00,,0833.6,4.99,0.00,23.4,22.6,00.0,32.3,25.3,10.1,0000.0,0017.38,0003.81,0001.89
2022-04-18 15:09:00,,0833.6,5.01,0.00,23.5,22.6,00.0,32.3,25.2,10.4,0000.0,0016.85,0003.82,0001.91
2022-04-18 15:10:00,,0833.6,5.00,0.00,23.5,22.6,00.0,32.3,25.3,10.5,0000.0,0017.00,0003.90,0001.92
2022-04-18 15:11:00,,0833.6,5.01,0.00,23.5,22.6,00.0,32.3,25.3,10.5,0000.0,0017.67,0003.92,0001.93
2022-04-18 15:12:00,,0833.6,4.99,0.00,23.5,22.7,00.0,32.3,25.3,10.5,0000.0,0019.30,0003.96,0001.96
2022-04-18 15:13:00,,0833.6,5.00,0.00,23.5,22.7,00.0,32.3,25.3,10.3,0000.0,0018.68,0003.96,0001.97
2022-04-18 15:14:00,,0833.5,5.00,0.00,23.5,22.7,00.0,32.3,25.3,10.2,0000.0,0018.05,0003.96,0001.98
2022-04-18 15:15:00,,0833.6,5.01,0.00,23.5,22.7,00.0,32.4,25.3,10.3,0000.0,0017.80,0003.98,0001.99
2022-04-18 15:16:00,,0833.6,5.00,0.00,23.5,22.7,00.0,32.4,25.4,10.5,0000.0,0018.49,0004.01,0001.99
2022-04-18 15:17:00,,0833.6,4.99,0.00,23.6,22.7,00.0,32.4,25.4,10.6,0000.0,0019.37,0004.05,0002.01
2022-04-18 15:18:00,,0833.6,5.00,0.00,23.6,22.7,00.0,32.4,25.4,10.6,0000.0,0019.09,0004.11,0002.01
2022-04-18 15:19:00,,0833.5,5.00,0.00,23.6,22.7,00.0,32.4,25.4,10.4,0000.0,0019.10,0004.18,0002.04
2022-04-18 15:20:00,,0833.5,4.98,0.00,23.6,22.8,00.0,32.4,25.4,10.4,0000.0,0019.13,0004.16,0002.04
2022-04-18 15:21:00,,0833.5,5.00,0.00,23.6,22.8,00.0,32.4,25.4,10.4,0000.0,0018.39,0004.13,0002.06
2022-04-18 15:22:00,,0833.6,5.00,0.00,23.6,22.7,00.0,32.4,25.4,10.3,0000.0,0019.70,0004.17,0002.07
2022-04-18 15:23:00,,0833.6,5.00,0.00,23.6,22.7,00.0,32.4,25.4,10.3,0000.0,0018.20,0004.12,0002.07
2022-04-18 15:24:00,,0833.6,5.00,0.00,23.5,22.6,00.0,32.4,25.4,10.3,0000.0,0019.31,0004.11,0002.07
2022-04-18 15:25:00,,0833.5,5.00,0.00,23.5,22.6,00.0,32.4,25.3,10.5,0000.0,0019.92,0004.07,0002.07
2022-04-18 15:26:00,,0833.5,4.99,0.00,23.5,22.6,00.0,32.4,25.3,10.4,0000.0,0019.90,0004.12,0002.08
2022-04-18 15:27:00,,0833.5,5.00,0.00,23.5,22.6,00.0,32.4,25.3,10.3,0000.0,0020.06,0004.13,0002.09
2022-04-18 15:28:00,,0833.5,5.00,0.00,23.5,22.7,00.0,32.4,25.3,10.2,0000.0,0020.53,0004.10,0002.08
2022-04-18 15:29:00,,0833.5,5.00,0.00,23.5,22.7,00.0,32.4,25.3,10.3,0000.0,0021.22,0004.06,0002.08
2022-04-18 15:30:00,,0833.5,4.99,0.00,23.6,22.7,00.0,32.4,25.3,10.2,0000.0,0021.00,0004.02,0002.06
2022-04-18 15:31:00,,0833.6,5.01,0.00,23.6,22.7,00.0,32.4,25.4,10.1,0000.0,0021.02,0004.01,0002.03
2022-04-18 15:32:00,,0833.5,4.98,0.00,23.6,22.7,00.0,32.5,25.4,10.0,0000.0,0021.43,0003.99,0002.01
2022-04-18 15:33:00,,0833.4,5.00,0.00,23.6,22.7,00.0,32.5,25.4,09.9,0000.0,0019.72,0003.94,0001.98
2022-04-18 15:34:00,,0833.4,5.00,0.00,23.6,22.7,00.0,32.5,25.4,09.9,0000.0,0019.10,0003.89,0001.97
2022-04-18 15:35:00,,0833.5,5.00,0.00,23.6,22.7,00.0,32.5,25.4,10.0,0000.0,0017.51,0003.80,0001.95
2022-04-18 15:36:00,,0833.4,5.01,0.00,23.6,22.7,00.0,32.5,25.4,09.9,0000.0,0017.42,0003.74,0001.93
2022-04-18 15:37:00,,0833.4,5.00,0.00,23.6,22.8,00.0,32.5,25.5,10.0,0000.0,0017.39,0003.67,0001.92
2022-04-18 15:38:00,,0833.4,4.98,0.00,23.6,22.8,00.0,32.5,25.5,10.1,0000.0,0015.94,0003.58,0001.92
2022-04-18 15:39:00,,0833.4,5.01,0.00,23.6,22.8,00.0,32.5,25.5,10.1,0000.0,0014.36,0003.56,0001.93
2022-04-18 15:40:00,,0833.4,5.01,0.00,23.6,22.8,00.0,32.5,25.5,10.1,0000.0,0012.98,0003.51,0001.94
2022-04-18 15:41:00,,0833.4,5.01,0.00,23.7,22.8,00.0,32.5,25.5,10.1,0000.0,0012.90,0003.51,0001.96
2022-04-18 15:42:00,,0833.4,5.01,0.00,23.7,22.8,00.0,32.5,25.5,10.1,0000.0,0011.97,0003.54,0001.98
2022-04-18 15:43:00,,0833.4,5.00,0.00,23.7,22.8,00.0,32.5,25.5,10.0,0000.0,0011.91,0003.59,0001.99
2022-04-18 15:44:00,,0833.4,4.99,0.00,23.7,22.8,00.0,32.5,25.5,10.1,0000.0,0012.47,0003.65,0002.02
2022-04-18 15:45:00,,0833.4,4.99,0.00,23.6,22.7,00.0,32.5,25.5,10.2,0000.0,0012.65,0003.74,0002.04
2022-04-18 15:46:00,,0833.4,5.00,0.00,23.6,22.7,00.0,32.5,25.4,10.1,0000.0,0013.71,0003.82,0002.06
2022-04-18 15:47:00,,0833.3,5.00,0.00,23.6,22.6,00.0,32.5,25.4,10.1,0000.0,0015.09,0003.87,0002.09
2022-04-18 15:48:00,,0833.3,5.00,0.00,23.6,22.6,00.0,32.5,25.3,10.1,0000.0,0016.04,0003.95,0002.11
2022-04-18 15:49:00,,0833.3,5.00,0.00,23.6,22.7,00.0,32.5,25.4,10.1,0000.0,0015.81,0004.01,0002.11
2022-04-18 15:50:00,,0833.4,5.00,0.00,23.6,22.7,00.0,32.5,25.4,10.1,0000.0,0015.83,0004.03,0002.11
2022-04-18 15:51:00,,0833.3,5.00,0.00,23.6,22.7,00.0,32.5,25.4,10.2,0000.0,0016.49,0004.09,0002.12
2022-04-18 15:52:00,,0833.3,5.00,0.00,23.6,22.8,00.0,32.5,25.5,10.2,0000.0,0016.32,0004.06,0002.13
2022-04-18 15:53:00,,0833.3,5.00,0.00,23.6,22.8,00.0,32.5,25.5,10.3,0000.0,0016.66,0004.03,0002.14
2022-04-18 15:54:00,,0833.2,5.01,0.00,23.7,22.8,00.0,32.5,25.5,10.3,0000.0,0016.78,0004.00,0002.15
2022-04-18 15:55:00,,0833.3,5.01,0.00,23.7,22.8,00.0,32.5,25.5,10.2,0000.0,0016.91,0004.00,0002.16
2022-04-18 15:56:00,,0833.2,4.98,0.00,23.7,22.9,00.0,32.5,25.5,10.3,0000.0,0017.18,0003.97,0002.17
2022-04-18 15:57:00,,0833.1,5.01,0.00,23.7,22.9,00.0,32.6,25.5,10.3,0000.0,0017.11,0003.94,0002.19
2022-04-18 15:58:00,,0833.1,5.00,0.00,23.7,22.9,00.0,32.6,25.5,10.1,0000.0,0015.18,0003.94,0002.20
2022-04-18 15:59:00,,0833.1,5.00,0.00,23.8,22.9,00.0,32.6,25.6,10.1,0000.0,0014.80,0003.93,0002.21
